Starlink 1814

operational
NORAD ID: 46712 Int'l Des: 2020-073 Owner: SPXS Country: US Constellation: starlink
LEOCIRCULARSTARLINK_TYPE

About Starlink 1814

Description loading...

Live Position

Loading 3D Globe...

Upcoming Passes

Altitude History

Altitude vs Time

uPlot chart will show altitude changes over time

Two-Line Element Set

1 46712U 20073AU 25352.87404930 .00099718 00000-0 16699-2 0 9991
2 46712 53.0491 224.8804 0016645 99.8135 260.4753 15.50935924285228
Epoch: Dec 18, 2025 • Age: 16 hours

Current Status

Altitude 430.3 km
Velocity 7.65 km/s
Sub-Earth Point -34.07°S, 142.54°E
Launch Date Oct 18, 2020
Age 5.1 years
Type internet

Technical Details

Classification Payload
Mass 260.00 kg
Dry Mass 248.00 kg
Total Mass 260.00 kg
Length 0.20 m
Diameter 2.80 m
Span 9.00 m
Shape Box + pan
Manufacturer SPXS
Bus Type Starlink
Phase Status In Orbit
Owner/State SPXS/US

Large Constellations

Loading constellations...